DW6276 Weather Reports


Display with metric or nautical units.
time (UTC)temp
F
wind
direction
speed
MPH
gust
MPH
rain 1hr
in
rain 24hr
in
rain mn
in
humidity
%
barometer
mb
20260902023537 70 0.0 2.0 0.00 0.00 0.00 88 1013.3
20260902022637 71 0.0 2.0 0.00 0.00 0.00 88 1013.1
20260902021537 71 0.0 1.0 0.00 0.00 0.00 87 1013.2
20260902020517 72 0 1.0 3.0 0.00 0.00 0.00 88 1013.0
20260902015517 71 90 1.0 2.0 0.00 0.00 0.00 88 1012.8
20260902014517 71 0.0 2.0 0.00 0.00 0.00 87 1013.0
20260902013557 72 45 1.0 1.0 0.00 0.00 0.00 87 1012.9
20260902012537 72 0.0 2.0 0.00 0.00 0.00 87 1012.7
20260902011517 73 0.0 1.0 0.00 0.00 0.00 87 1012.6
20260902010517 73 0.0 0.0 0.00 0.00 0.00 86 1012.7
20260902005517 74 0.0 1.0 0.00 0.00 0.00 85 1012.5
20260902004517 75 0.0 2.0 0.00 0.00 0.00 85 1012.8
20260902003537 76 0 1.0 1.0 0.00 0.00 0.00 83 1012.8
20260902002517 77 23 1.0 1.0 0.00 0.00 0.00 81 1012.9
20260902001517 78 23 1.0 1.0 0.00 0.00 0.00 81 1012.9
20260902000617 78 23 1.0 2.0 0.00 0.00 0.00 81 1013.3
20260901235517 79 23 2.0 2.0 0.00 0.00 0.00 80 1013.4
20260901234537 80 23 1.0 2.0 0.00 0.00 0.00 79 1013.3
20260901233517 80 23 1.0 2.0 0.00 0.00 0.00 78 1013.5
20260901232516 80 23 2.0 2.0 0.00 0.00 0.00 77 1013.4
20260901231537 80 0.0 2.0 0.00 0.00 0.00 78 1013.4
20260901230537 81 23 1.0 2.0 0.00 0.00 0.00 77 1013.3
20260901225517 81 23 1.0 2.0 0.00 0.00 0.00 75 1013.5
20260901224516 81 45 1.0 2.0 0.00 0.00 0.00 73 1013.4
20260901223517 82 0.0 2.0 0.00 0.00 0.00 74 1013.4
20260901222516 82 0.0 2.0 0.00 0.00 0.00 73 1013.5
20260901221516 81 0.0 2.0 0.00 0.00 0.00 73 1013.3
20260901220516 81 45 1.0 1.0 0.00 0.00 0.00 73 1013.1
20260901215516 82 0.0 1.0 0.00 0.00 0.00 74 1013.2
20260901214517 82 0.0 1.0 0.00 0.00 0.00 73 1013.2
20260901213517 83 45 1.0 2.0 0.00 0.00 0.00 68 1013.4
20260901212517 83 0.0 2.0 0.00 0.00 0.00 66 1013.5
20260901211516 83 0.0 2.0 0.00 0.00 0.00 66 1013.5
20260901210536 83 45 1.0 2.0 0.00 0.00 0.00 68 1013.4
20260901205516 83 0.0 2.0 0.00 0.00 0.00 69 1013.5
20260901204537 82 45 2.0 3.0 0.00 0.00 0.00 69 1013.5
20260901203536 81 68 1.0 2.0 0.00 0.00 0.00 72 1013.5
20260901202516 81 68 1.0 2.0 0.00 0.00 0.00 75 1013.6
20260901201516 81 0.0 2.0 0.00 0.00 0.00 73 1013.6
20260901200536 81 23 2.0 3.0 0.00 0.00 0.00 72 1013.6
20260901195516 82 0 2.0 4.0 0.00 0.00 0.00 71 1013.8
20260901194516 82 0.0 0.0 0.00 0.00 0.00 67 1013.7
20260901193536 83 0.0 0.0 0.00 0.00 0.00 65 1013.7
20260901192516 83 0.0 0.0 0.00 0.00 0.00 63 1013.7
20260901191516 83 0.0 0.0 0.00 0.00 0.00 62 1014.0
20260901190516 82 0.0 0.0 0.00 0.00 0.00 64 1014.1
20260901185516 83 0.0 0.0 0.00 0.00 0.00 65 1014.4
20260901184516 83 0.0 0.0 0.00 0.00 0.00 63 1014.4
20260901183516 83 225 1.0 2.0 0.00 0.00 0.00 64 1014.6
20260901182516 83 0.0 2.0 0.00 0.00 0.00 62 1014.5
20260901181516 83 180 1.0 3.0 0.00 0.00 0.00 63 1014.4
20260901180516 83 68 3.0 6.0 0.00 0.00 0.00 61 1014.0
20260901175516 83 90 2.0 3.0 0.00 0.00 0.00 63 1014.3
20260901174516 83 0 2.0 3.0 0.00 0.00 0.00 64 1014.7
20260901173536 83 68 2.0 4.0 0.00 0.00 0.00 62 1014.8
20260901172516 83 45 1.0 3.0 0.00 0.00 0.00 62 1014.8
20260901171556 83 0 2.0 4.0 0.00 0.00 0.00 63 1014.8
20260901170556 83 315 1.0 3.0 0.00 0.00 0.00 66 1014.9
20260901165516 83 180 2.0 3.0 0.00 0.00 0.00 64 1014.9
20260901164516 82 338 1.0 3.0 0.00 0.00 0.00 65 1014.9
20260901163516 82 315 1.0 2.0 0.00 0.00 0.00 65 1015.0
20260901162516 81 0.0 2.0 0.00 0.00 0.00 67 1015.0
20260901161516 80 225 1.0 3.0 0.00 0.00 0.00 69 1015.2
20260901160536 80 203 2.0 3.0 0.00 0.00 0.00 70 1015.2
20260901155516 79 0.0 2.0 0.00 0.00 0.00 70 1015.3
20260901154516 78 0 1.0 3.0 0.00 0.00 0.00 72 1015.1
20260901153536 77 293 1.0 3.0 0.00 0.00 0.00 73 1015.1
20260901152516 77 248 1.0 2.0 0.00 0.00 0.00 75 1015.1
20260901151516 76 270 1.0 2.0 0.00 0.00 0.00 75 1015.2
20260901150516 75 293 1.0 2.0 0.00 0.00 0.00 79 1015.0
20260901145556 74 45 1.0 3.0 0.00 0.00 0.00 84 1015.1
20260901144536 73 45 2.0 3.0 0.00 0.00 0.00 85 1015.0
20260901143516 72 45 2.0 5.0 0.00 0.00 0.00 87 1015.2
20260901142516 71 0 2.0 4.0 0.00 0.00 0.00 87 1015.4
20260901141516 71 0 1.0 2.0 0.00 0.00 0.00 88 1015.4
20260901140516 70 0.0 1.0 0.00 0.00 0.00 90 1015.3
20260901135515 68 0.0 2.0 0.00 0.00 0.00 92 1015.4
20260901134516 67 0 1.0 2.0 0.00 0.00 0.00 92 1015.5
20260901133516 66 0.0 1.0 0.00 0.00 0.00 93 1015.5
20260901132516 66 0.0 2.0 0.00 0.00 0.00 95 1015.6
20260901131516 64 0.0 2.0 0.00 0.00 0.00 95 1015.5
20260901130515 63 0 1.0 3.0 0.00 0.00 0.00 94 1015.3
20260901125516 63 0 1.0 1.0 0.00 0.00 0.00 95 1015.0
20260901124536 62 0.0 2.0 0.00 0.00 0.00 95 1014.9
20260901123555 60 0.0 0.0 0.00 0.00 0.00 95 1014.7
20260901122516 60 0.0 2.0 0.00 0.00 0.00 94 1015.0
20260901121555 59 0.0 1.0 0.00 0.00 0.00 94 1015.0
20260901120535 59 0.0 0.0 0.00 0.00 0.00 94 1015.0
20260901115516 59 0.0 0.0 0.00 0.00 0.00 94 1014.8
20260901114515 59 0.0 0.0 0.00 0.00 0.00 94 1014.8
20260901113515 58 0.0 2.0 0.00 0.00 0.00 94 1014.5
20260901112515 58 0.0 0.0 0.00 0.00 0.00 93 1014.3
20260901111515 58 0.0 1.0 0.00 0.00 0.00 93 1014.3
20260901110515 58 0.0 0.0 0.00 0.00 0.00 93 1014.1
20260901105535 58 0.0 0.0 0.00 0.00 0.00 93 1014.2
20260901104515 58 0.0 2.0 0.00 0.00 0.00 93 1014.2
20260901103515 58 0.0 0.0 0.00 0.00 0.00 93 1014.3
20260901102515 58 0.0 2.0 0.00 0.00 0.00 93 1014.1
20260901101535 58 0.0 0.0 0.00 0.00 0.00 93 1014.1
20260901100515 58 0.0 0.0 0.00 0.00 0.00 93 1014.0
20260901095515 58 0.0 0.0 0.00 0.00 0.00 93 1014.1
20260901094517 58 0.0 0.0 0.00 0.00 0.00 93 1014.1
20260901093517 59 0.0 0.0 0.00 0.00 0.00 93 1013.9
20260901092517 59 0.0 0.0 0.00 0.00 0.00 93 1014.0
20260901091517 59 0.0 0.0 0.00 0.00 0.00 93 1013.8
20260901090517 59 0.0 0.0 0.00 0.00 0.00 93 1014.1
20260901085537 59 0.0 0.0 0.00 0.00 0.00 93 1014.2
20260901084517 59 0.0 2.0 0.00 0.00 0.00 93 1014.0
20260901083517 59 0.0 1.0 0.00 0.00 0.00 93 1013.9
20260901082517 59 0.0 2.0 0.00 0.00 0.00 93 1013.8
20260901081517 59 0.0 1.0 0.00 0.00 0.00 93 1013.8
20260901080517 59 0.0 2.0 0.00 0.00 0.00 93 1013.8
20260901075557 59 0.0 0.0 0.00 0.00 0.00 93 1013.8
20260901074517 59 0.0 0.0 0.00 0.00 0.00 93 1013.8
20260901073517 60 0.0 0.0 0.00 0.00 0.00 93 1013.8
20260901072517 60 0.0 0.0 0.00 0.00 0.00 93 1014.0
20260901071517 60 0.0 0.0 0.00 0.00 0.00 92 1014.0
20260901070517 59 0.0 1.0 0.00 0.00 0.00 92 1014.0
20260901065517 60 0.0 0.0 0.00 0.00 0.00 92 1014.2
20260901064517 60 0.0 1.0 0.00 0.00 0.00 92 1014.4
20260901063517 60 0.0 1.0 0.00 0.00 0.00 92 1014.4
20260901062517 60 0.0 2.0 0.00 0.00 0.00 92 1014.4
20260901061517 60 0.0 0.0 0.00 0.00 0.00 92 1014.4
20260901060537 60 0.0 2.0 0.00 0.00 0.00 91 1014.2
20260901055517 61 0.0 2.0 0.00 0.00 0.00 92 1014.1
20260901054517 61 0.0 0.0 0.00 0.00 0.00 92 1014.2
20260901053517 61 0.0 0.0 0.00 0.00 0.00 92 1014.0
20260901052517 61 0.0 0.0 0.00 0.00 0.00 92 1013.9
20260901051517 62 0.0 0.0 0.00 0.00 0.00 92 1013.9
20260901050516 61 0.0 0.0 0.00 0.00 0.00 91 1013.7
20260901050017 61 0.0 2.0 0.00 0.00 0.00 91 1013.7
20260901045015 62 0.0 0.0 0.00 0.00 0.00 91 1013.6
20260901044015 63 0.0 0.0 0.00 0.00 0.00 91 1013.6
20260901043015 63 0.0 2.0 0.00 0.00 0.00 91 1013.6
20260901042015 63 0.0 2.0 0.00 0.00 0.00 91 1013.5
20260901041015 63 0.0 0.0 0.00 0.00 0.00 91 1013.4
20260901040015 63 0.0 1.0 0.00 0.00 0.00 90 1013.4
20260901035035 64 0.0 0.0 0.00 0.00 0.00 90 1013.3
20260901034016 65 0.0 2.0 0.00 0.00 0.00 90 1013.3
20260901033035 65 0.0 0.0 0.00 0.00 0.00 90 1013.3
20260901032015 65 0.0 0.0 0.00 0.00 0.00 90 1013.2
20260901031037 65 0.0 0.0 0.00 0.00 0.00 90 1013.1
20260901030017 66 0.0 2.0 0.00 0.00 0.00 90 1013.2
20260901025017 66 0.0 0.0 0.00 0.00 0.00 89 1013.0